Regional Weather Roundup
Issued by NWS

Home | Current Version | Previous Version | Graphics & Text | Print | Product List | Glossary On
Versions: 1 2 3 4 5 6 7 8 9 10 11 12 13 14 15 16 17 18 19 20 21 22 23 24 25 26 27 28 29 30 31 32 33 34 35 36 37 38 39 40 41 42 43 44 45 46 47 48 49 50
000
ASUS44 KMEG 180410
RWRTN
TENNESSEE HOURLY STATE WEATHER ROUNDUP
NATIONAL WEATHER SERVICE MEMPHIS TN
1000 PM CST WED DEC 17 2014

TNZ002-004-019-021-049-052-054-088>092-180500-
WEST TENNESSEE

CITY           SKY/WX    TMP DP  RH WIND       PRES   REMARKS
MEMPHIS INTL   LGT RAIN  40  31  70 E10       30.23S WCI  33
NWS MEMPHIS      N/A     39 N/A N/A MISG        N/A
JACKSON        CLOUDY    38  31  76 NE3       30.25F
DYERSBURG      CLOUDY    37  21  52 NE5       30.28S WCI  34
UNION CITY     CLOUDY    36  28  75 NE5       30.26R WCI  32
PARIS          CLOUDY    32  27  80 NE3       30.25R
HUNTINGDON     CLOUDY    35  28  76 NE3       30.25S
LEXINGTON      MOCLDY    36  28  75 CALM      30.23S
SAVANNAH       CLOUDY    37  30  75 NE5       30.24S WCI  34
$$

TNZ008-025-027-028-033-062-065-066-180500-
NORTH MIDDLE TENNESSEE

CITY           SKY/WX    TMP DP  RH WIND       PRES   REMARKS
NASHVILLE      MOCLDY    32  29  88 CALM      30.26F
CLARKSVILLE    PTCLDY    31  26  82 E5        30.27S WCI  26
SMYRNA         MOCLDY    28  27  96 CALM      30.27F
COOKEVILLE     CLEAR     27  27 100 CALM      30.23S
CROSSVILLE     PTCLDY    32  27  81 CALM      30.20S
$$

TNZ061-075-076-078-094-096-097-180500-
SOUTH MIDDLE TENNESSEE

CITY           SKY/WX    TMP DP  RH WIND       PRES   REMARKS
FAYETTEVILLE   CLEAR     30  28  93 MISG      30.22F
TULLAHOMA      CLEAR     30  28  93 N3        30.24S
WINCHESTER     CLEAR     28  28 100 CALM      30.25R
MCMINNVILLE    CLEAR     30  30 100 CALM      30.23S
SHELBYVILLE    CLEAR     30  30 100 CALM      30.26R
$$

TNZ017-018-042-046-047-180500-
NORTHEAST TENNESSEE

CITY           SKY/WX    TMP DP  RH WIND       PRES   REMARKS
TRI CITIES     CLEAR     31  28  89 CALM      30.18S
ELIZABETHTON   CLEAR     28  27  93 CALM      30.17S
$$

TNZ012-013-036-069-073-074-180500-
CENTRAL EAST TENNESSEE

CITY           SKY/WX    TMP DP  RH WIND       PRES   REMARKS
KNOXVILLE      MOCLDY    34  31  88 E5        30.20F WCI  30
OAK RIDGE      PTCLDY    34  30  85 CALM      30.23S
GATLINBURG     CLEAR     30  28  93 CALM      30.21R
MORRISTOWN     CLEAR     34  30  86 CALM      30.20R
$$

TNZ083-085-099-180500-
SOUTHEAST TENNESSEE

CITY           SKY/WX    TMP DP  RH WIND       PRES   REMARKS
CHATTANOOGA    CLOUDY    37  32  82 CALM      30.22S
$$

SKY/WX REPORTED AS FAIR MEANS FEW OR NO CLOUDS BELOW
12 THOUSAND FEET.



USA.gov is the U.S. government's official web portal to all federal, state and local government web resources and services.